BEL4RER LEBB-EBBR

Flight info

Callsign BEL4RER
Flight time N/A
Altitude 34000
Route SSN L176 LUSEM DCT LULUT DCT ADABI DCT BOKNO UN858 VANAD UN874 BAMES UT191 PODEM UN873 BAZOS DCT BELDI DCT VEKIN Z173 ARVOL
Aircraft A320/M-SDE3FGHIRWY/LB1

Departure

Time 2026-05-01 12:49
Airport Bilbao Airport (LEBB)

Arrival

Time N/A
Airport Brussels Airport (EBBR)
Time Latitude Longitude Altitude Speed Heading
2026-05-01 11:12 43.30243 -2.90417 127 ft 0 kts 56°
2026-05-01 12:40 43.30242 -2.90417 127 ft 1 kts 56°
2026-05-01 12:40 43.30230 -2.90443 125 ft 4 kts 57°
2026-05-01 12:40 43.30215 -2.90474 127 ft 4 kts 61°
2026-05-01 12:41 43.30206 -2.90508 132 ft 4 kts 78°
2026-05-01 12:41 43.30199 -2.90541 125 ft 4 kts 43°
2026-05-01 12:41 43.30194 -2.90547 127 ft 0 kts 24°
2026-05-01 12:42 43.30205 -2.90540 127 ft 6 kts 24°
2026-05-01 12:43 43.30248 -2.90532 126 ft 7 kts 341°
2026-05-01 12:43 43.30286 -2.90564 126 ft 6 kts 327°
2026-05-01 12:43 43.30328 -2.90603 125 ft 8 kts 324°
2026-05-01 12:43 43.30354 -2.90656 128 ft 6 kts 297°
2026-05-01 12:44 43.30372 -2.90702 123 ft 6 kts 297°
2026-05-01 12:44 43.30406 -2.90799 126 ft 11 kts 291°
2026-05-01 12:44 43.30392 -2.90969 126 ft 10 kts 233°
2026-05-01 12:45 43.30306 -2.91079 133 ft 7 kts 291°
2026-05-01 12:45 43.30349 -2.91203 131 ft 19 kts 296°
2026-05-01 12:45 43.30406 -2.91362 128 ft 18 kts 296°
2026-05-01 12:46 43.30463 -2.91513 124 ft 17 kts 296°
2026-05-01 12:46 43.30512 -2.91649 126 ft 16 kts 296°
2026-05-01 12:46 43.30562 -2.91784 129 ft 16 kts 297°
2026-05-01 12:46 43.30614 -2.91925 128 ft 17 kts 297°
2026-05-01 12:47 43.30664 -2.92060 127 ft 14 kts 297°
2026-05-01 12:47 43.30708 -2.92180 126 ft 15 kts 296°
2026-05-01 12:47 43.30753 -2.92304 125 ft 15 kts 297°
2026-05-01 12:47 43.30798 -2.92437 124 ft 14 kts 285°
2026-05-01 12:48 43.30756 -2.92504 128 ft 10 kts 175°
2026-05-01 12:48 43.30694 -2.92478 124 ft 10 kts 161°
2026-05-01 12:48 43.30631 -2.92437 126 ft 9 kts 145°
2026-05-01 12:48 43.30593 -2.92375 124 ft 8 kts 117°
2026-05-01 12:49 43.30526 -2.92191 124 ft 54 kts 116°
2026-05-01 12:49 43.30250 -2.91436 124 ft 119 kts 117°
2026-05-01 12:49 43.29797 -2.90197 188 ft 163 kts 116°
2026-05-01 12:49 43.29268 -2.88785 743 ft 167 kts 116°
2026-05-01 12:50 43.28745 -2.87363 1480 ft 166 kts 116°
2026-05-01 12:50 43.28231 -2.85962 2108 ft 172 kts 116°
2026-05-01 12:50 43.27654 -2.84386 2513 ft 195 kts 114°
2026-05-01 12:50 43.27011 -2.82631 2879 ft 215 kts 114°
2026-05-01 12:51 43.26325 -2.80767 3585 ft 218 kts 115°
2026-05-01 12:51 43.25641 -2.78915 4467 ft 217 kts 116°
2026-05-01 12:51 43.24525 -2.75046 5956 ft 225 kts 92°
2026-05-01 12:52 43.24880 -2.72935 6660 ft 233 kts 63°
2026-05-01 12:52 43.27196 -2.69700 8082 ft 243 kts 44°
2026-05-01 12:52 43.28469 -2.68146 8785 ft 246 kts 44°
2026-05-01 12:53 43.30593 -2.64461 9961 ft 258 kts 73°
2026-05-01 12:53 43.30915 -2.61997 10249 ft 277 kts 92°
2026-05-01 12:53 43.30910 -2.59244 10519 ft 300 kts 92°
2026-05-01 12:54 43.30905 -2.56266 10766 ft 324 kts 92°
2026-05-01 12:54 43.30912 -2.49808 11813 ft 346 kts 92°
2026-05-01 12:54 43.30924 -2.46476 12485 ft 351 kts 92°
2026-05-01 12:55 43.30952 -2.39701 13867 ft 358 kts 92°
2026-05-01 12:55 43.30962 -2.36255 14541 ft 362 kts 92°
2026-05-01 12:55 43.30966 -2.32791 15186 ft 365 kts 92°
2026-05-01 12:56 43.30969 -2.29335 15814 ft 368 kts 92°
2026-05-01 12:56 43.30972 -2.25800 16441 ft 371 kts 92°
2026-05-01 12:56 43.30984 -2.22229 17041 ft 375 kts 92°
2026-05-01 12:56 43.31001 -2.18633 17628 ft 378 kts 92°
2026-05-01 12:57 43.31020 -2.15010 18216 ft 380 kts 92°
2026-05-01 12:57 43.31059 -2.07695 19315 ft 386 kts 92°
2026-05-01 12:57 43.31075 -2.03989 19840 ft 390 kts 92°
2026-05-01 12:58 43.31085 -2.00247 20376 ft 393 kts 92°
2026-05-01 12:58 43.31089 -1.96490 20915 ft 396 kts 92°
2026-05-01 12:58 43.31102 -1.92686 21447 ft 400 kts 90°